Weather History for Meacham, OR

Change the Weather History Date:

Tuesday, February 19, 2013

  Actual Average Record
Temperature  
Mean Temperature 24 °F -  
Max Temperature 32 °F 38 °F 46 °F (2008)
Min Temperature 17 °F 19 °F -18 °F (2006)
Degree Days  
Heating Degree Days 40    
Moisture  
Dew Point 25 °F    
Average Humidity 89    
Maximum Humidity 100    
Minimum Humidity 75    
Precipitation  
Precipitation 0.19 in - - ()
Sea Level Pressure  
Sea Level Pressure 29.70 in    
Wind  
Wind Speed 0 mph (North)    
Max Wind Speed 4 mph    
Max Gust Speed -    
Visibility 4 miles    
Events Fog , Snow    
Averages and records for this station are not official NWS values.
T = Trace of Precipitation, MM = Missing Value Source: NWS Daily Summary

Daily Weather History Graph

Daily Weather History Graph

Search for Another Location

Airport:

Trip Planner

Search our weather history database for the weather conditions in past years. The results will help you decide how hot, cold, wet, or windy it might be!

Date:

Astronomy

Feb. 19, 2013 Rise Set
Actual Time 6:48 AM PST 5:27 PM PST
Civil Twilight 6:18 AM PST 5:57 PM PST
Nautical Twilight 5:43 AM PST 6:31 PM PST
Astronomical Twilight 5:09 AM PST 7:06 PM PST
Moon 11:53 AM PST (2/19) 2:33 AM PST (2/19)
Length of Visible Light 11h 38m
Length of Day
10h 38m
Waxing Gibbous, 68% of the Moon is Illuminated
Feb 19
Waxing Gibbous
Feb 25
Full
Mar 4
Last Quarter
Mar 11
New
Mar 19
First Quarter

Hourly Weather History & Observations

Time (PST) Temp. Windchill Dew Point Humidity Pressure Visibility Wind Dir Wind Speed Gust Speed Precip Events Conditions
12:22 AM 28.4 °F - 26.6 °F 93% 29.67 in 1.0 mi Calm Calm - 0.02 in Snow Light Snow
12:56 AM 28.9 °F - 27.0 °F 92% 29.71 in 1.2 mi Calm Calm - 0.04 in Snow Light Snow
1:10 AM 28.4 °F - 26.6 °F 93% 29.65 in 2.5 mi Calm Calm - 0.00 in Snow Light Snow
1:46 AM 30.2 °F - 26.6 °F 86% 29.64 in 1.5 mi Calm Calm - 0.01 in Snow Light Snow
1:56 AM 28.9 °F - 27.0 °F 92% 29.69 in 3.0 mi Calm Calm - 0.01 in Snow Light Snow
2:48 AM 28.4 °F - 26.6 °F 93% 29.63 in 1.8 mi Calm Calm - 0.00 in Snow Light Snow
2:56 AM 28.9 °F - 27.0 °F 92% 29.69 in 1.8 mi Calm Calm - 0.01 in Snow Light Snow
3:19 AM 28.4 °F - 28.4 °F 100% 29.62 in 1.0 mi Calm Calm - 0.01 in Snow Light Snow
3:56 AM 30.0 °F - 28.0 °F 92% 29.67 in 1.8 mi Calm Calm - 0.03 in Snow Light Snow
4:31 AM 30.2 °F - 28.4 °F 93% 29.62 in 1.5 mi Calm Calm - 0.01 in Snow Light Snow
4:39 AM 30.2 °F - 28.4 °F 93% 29.62 in 1.8 mi Calm Calm - 0.01 in Snow Light Snow
4:45 AM 30.2 °F - 28.4 °F 93% 29.62 in 3.0 mi Calm Calm - 0.02 in Snow Light Snow
4:56 AM 30.0 °F - 28.0 °F 92% 29.68 in 6.0 mi Calm Calm - 0.02 in   Overcast
5:03 AM 30.2 °F - 28.4 °F 93% 29.62 in 4.0 mi Calm Calm - 0.00 in Snow Light Snow
5:11 AM 30.2 °F - 28.4 °F 93% 29.62 in 2.0 mi Calm Calm - 0.00 in Snow Light Snow
5:20 AM 30.2 °F - 28.4 °F 93% 29.62 in 2.5 mi Calm Calm - 0.00 in Snow Light Snow
5:27 AM 30.2 °F - 26.6 °F 86% 29.62 in 2.5 mi Calm Calm - 0.01 in Snow Light Snow
5:34 AM 30.2 °F - 26.6 °F 86% 29.62 in 3.0 mi Calm Calm - 0.01 in Snow Light Snow
5:56 AM 30.0 °F - 27.0 °F 88% 29.69 in 5.0 mi Calm Calm - 0.01 in Snow Light Snow
6:56 AM 28.9 °F - 27.0 °F 92% 29.70 in 9.0 mi Calm Calm - 0.01 in   Overcast
7:10 AM 28.4 °F - 26.6 °F 93% 29.62 in 1.8 mi Calm Calm - 0.00 in Snow Light Snow
7:26 AM 28.4 °F - 26.6 °F 93% 29.63 in 2.5 mi Calm Calm - 0.00 in Snow Light Snow
7:33 AM 28.4 °F - 26.6 °F 93% 29.63 in 4.0 mi Calm Calm - 0.00 in Snow Light Snow
7:43 AM 28.4 °F - 26.6 °F 93% 29.63 in 2.5 mi Calm Calm - 0.00 in Snow Light Snow
7:56 AM 30.0 °F - 27.0 °F 88% 29.70 in 3.0 mi Calm Calm - 0.00 in Snow Light Snow
8:09 AM 28.4 °F - 26.6 °F 93% 29.64 in 6.0 mi Calm Calm - 0.00 in   Overcast
8:15 AM 30.2 °F - 26.6 °F 86% 29.64 in 7.0 mi Calm Calm - 0.00 in   Overcast
8:31 AM 30.2 °F - 26.6 °F 86% 29.64 in 8.0 mi Calm Calm - 0.00 in   Overcast
8:40 AM 30.2 °F - 26.6 °F 86% 29.64 in 1.8 mi Calm Calm - 0.00 in Snow Light Snow
8:56 AM 30.0 °F - 27.0 °F 88% 29.71 in 2.0 mi Calm Calm - 0.00 in Snow Light Snow
9:10 AM 30.2 °F - 26.6 °F 86% 29.64 in 4.0 mi Calm Calm - 0.00 in Snow Light Snow
9:29 AM 30.2 °F - 26.6 °F 86% 29.65 in 2.5 mi Calm Calm - 0.00 in Snow Light Snow
9:39 AM 30.2 °F - 26.6 °F 86% 29.65 in 1.0 mi Calm Calm - 0.00 in Snow Light Snow
9:56 AM 30.0 °F - 27.0 °F 88% 29.72 in 1.5 mi Calm Calm - 0.00 in Snow Light Snow
10:18 AM 30.2 °F - 28.4 °F 93% 29.65 in 0.8 mi Calm Calm - 0.01 in Snow Light Snow
10:56 AM 30.9 °F - 28.0 °F 89% 29.72 in 0.8 mi Calm Calm - 0.04 in Snow Light Snow
11:05 AM 30.2 °F - 28.4 °F 93% 29.66 in 1.5 mi Calm Calm - 0.00 in Snow Light Snow
11:14 AM 30.2 °F - 28.4 °F 93% 29.66 in 2.0 mi Calm Calm - 0.00 in Snow Light Snow
11:29 AM 30.2 °F - 26.6 °F 86% 29.67 in 1.2 mi Calm Calm - 0.01 in Snow Light Snow
11:43 AM 30.2 °F - 28.4 °F 93% 29.67 in 0.5 mi Calm Calm - 0.01 in Fog , Snow Light Snow
11:55 AM 32.0 °F - 28.0 °F 85% 29.73 in 2.0 mi Calm Calm - 0.02 in Snow Light Snow
12:02 PM 32.0 °F - 28.4 °F 87% 29.67 in 3.0 mi Calm Calm - 0.00 in Snow Light Snow
12:11 PM 30.2 °F - 28.4 °F 93% 29.67 in 1.5 mi Calm Calm - 0.00 in Snow Light Snow
12:25 PM 32.0 °F - 28.4 °F 87% 29.67 in 3.0 mi Calm Calm - 0.00 in Snow Light Snow
12:34 PM 30.2 °F - 28.4 °F 93% 29.67 in 2.5 mi Calm Calm - 0.00 in Snow Light Snow
12:41 PM 32.0 °F - 28.4 °F 87% 29.67 in 1.0 mi Calm Calm - 0.00 in Snow Light Snow
12:50 PM 32.0 °F - 26.6 °F 80% 29.67 in 2.0 mi Calm Calm - 0.00 in Snow Light Snow
12:56 PM 32.0 °F - 27.0 °F 82% 29.74 in 7.0 mi Calm Calm - 0.00 in Snow Light Snow
1:12 PM 32.0 °F 28.7 °F 26.6 °F 80% 29.67 in 8.0 mi North 3.5 mph - N/A   Overcast
1:33 PM 30.2 °F - 26.6 °F 86% 29.68 in 1.8 mi Calm Calm - 0.00 in Snow Light Snow
1:48 PM 32.0 °F - 28.4 °F 87% 29.68 in 3.0 mi Calm Calm - 0.00 in Snow Light Snow
1:56 PM 32.0 °F - 28.0 °F 85% 29.75 in 9.0 mi Calm Calm - 0.00 in   Overcast
2:56 PM 32.0 °F - 25.0 °F 75% 29.76 in 10.0 mi Calm Calm - N/A   Overcast
3:29 PM 32.0 °F - 26.6 °F 80% 29.70 in 10.0 mi Calm Calm - N/A   Overcast
4:56 PM 30.0 °F - 26.1 °F 85% 29.79 in 10.0 mi Calm Calm - N/A   Mostly Cloudy
5:07 PM 28.4 °F - 26.6 °F 93% 29.72 in 10.0 mi Calm Calm - N/A   Mostly Cloudy
5:15 PM 28.4 °F - 24.8 °F 86% 29.72 in 10.0 mi Calm Calm - N/A   Scattered Clouds
5:47 PM 26.6 °F - 24.8 °F 93% 29.73 in 10.0 mi Calm Calm - N/A   Mostly Cloudy
5:56 PM 27.0 °F - 25.0 °F 92% 29.81 in 10.0 mi Calm Calm - N/A   Overcast
6:34 PM 26.6 °F - 24.8 °F 93% 29.75 in 10.0 mi Calm Calm - N/A   Mostly Cloudy
6:56 PM 26.1 °F - 23.0 °F 88% 29.84 in 9.0 mi Calm Calm - N/A   Overcast
7:24 PM 26.6 °F - 24.8 °F 93% 29.76 in 10.0 mi Calm Calm - N/A   Overcast
7:56 PM 25.0 °F - 23.0 °F 92% 29.86 in 10.0 mi Calm Calm - N/A   Mostly Cloudy
8:05 PM 24.8 °F - 21.2 °F 86% 29.78 in 9.0 mi Calm Calm - N/A   Scattered Clouds
8:56 PM 21.0 °F - 19.0 °F 92% 29.88 in 8.0 mi Calm Calm - N/A   Clear
9:10 PM 19.4 °F - 17.6 °F 93% 29.79 in 8.0 mi Calm Calm - N/A   Mostly Cloudy
9:22 PM 19.4 °F - 17.6 °F 93% 29.79 in 9.0 mi Calm Calm - N/A   Mostly Cloudy
9:56 PM 19.0 °F - 16.0 °F 88% 29.89 in 9.0 mi Calm Calm - N/A   Overcast
10:10 PM 17.6 °F - 15.8 °F 93% 29.81 in 1.5 mi Calm Calm - N/A   Overcast
10:22 PM 19.4 °F - 15.8 °F 86% 29.82 in 3.0 mi Calm Calm - N/A   Overcast
10:56 PM 18.0 °F - 15.1 °F 88% 29.92 in 5.0 mi Calm Calm - N/A   Overcast
11:12 PM 17.6 °F - 14.0 °F 86% 29.82 in 1.8 mi Calm Calm - N/A   Overcast
11:23 PM 17.6 °F - 14.0 °F 86% 29.82 in 3.0 mi Calm Calm - N/A   Overcast
11:56 PM 17.1 °F - 14.0 °F 88% 29.93 in 8.0 mi Calm Calm - N/A   Overcast